{"data":{"norad_id":59499,"epoch":"2026-05-25T00:46:16.979808Z","epoch_age_seconds":69308,"freshness":"FRESH","line1":"1 59499U 24071R   26145.03214097  .00001881  00000+0  77838-4 0  9998","line2":"2 59499  43.0008 268.3875 0000852 283.4632  76.6124 15.27581107119885","mean_motion":15.27581107,"eccentricity":8.52e-5,"inclination_deg":43.0008,"raan_deg":268.3875,"arg_perigee_deg":283.4632,"mean_anomaly_deg":76.6124,"bstar":7.7838e-5,"rev_number":11988,"period_min":94.266680400886,"perigee_km":482.46120851245,"apogee_km":483.63035405838,"semimajor_km":6861.1827812854,"source":"CELESTRAK","updated_at":"2026-05-25T13:38:18.971769Z"}}